[[{"header":{"parameterUnit":"m.s-1","parameterCategory":1,"la1":30.2991,"la2":30.254,"lo1":-89.0895,"lo2":-89.0444,"dx":0.0017,"dy":0.0017,"nx":28,"ny":28,"refTime":"2022-12-05T15:00:00:Z","depth":0,"parameterNumber":2,"parameterNumberName":"U-component_of_WINDS"},"data":[0,0,0,0,0,0,0,0,0,0,0,0,0,0,0,0,0,0,0,0,0,0,0,0,0,0,0,0,0,0,0,0,0,0,0,0,0,0,0,0,0,0,0,0,0,0,0,0,0,0,0,0,0,0,0,0,0,0,-0.0743,-0.0742,0,-0.0675,-0.0675,-0.0674,-0.0661,-0.0661,-0.0662,-0.0662,-0.0591,-0.0588,-0.0586,0,0,0,0,0,0,0,0,0,0,0,0,0,-0.0857,-0.0855,-0.0743,-0.0742,-0.0741,-0.0675,-0.0675,-0.0674,-0.0661,-0.0661,-0.0662,-0.0663,-0.0592,-0.0589,-0.0586,0,0,0,0,0,0,0,0,0,0,0,0,0,-0.0801,-0.0855,-0.0743,-0.0727,-0.0725,-0.0676,-0.0675,-0.0673,-0.066,-0.0661,-0.0662,-0.0663,-0.0593,-0.0589,-0.0585,-0.0547,0,0,-0.0574,-0.0573,0,0,0,0,0,0,0,0,-0.0804,-0.0796,-0.073,-0.0728,-0.0725,-0.0677,-0.0689,-0.0631,-0.066,-0.0685,-0.0662,-0.0663,-0.0619,-0.0613,-0.0599,-0.0544,-0.0541,-0.0574,-0.0572,-0.057,-0.0569,0,0,0,0,0,0,0,-0.0808,-0.0799,-0.0716,-0.0729,-0.0726,-0.0722,-0.0715,-0.0678,-0.0648,-0.0683,-0.0682,-0.0674,-0.0618,-0.0602,-0.0597,-0.054,-0.0574,-0.0571,-0.0569,-0.0567,-0.0449,-0.0448,0,0,0,0,0,0,-0.0815,-0.0803,-0.0718,-0.0714,-0.0767,-0.0719,-0.0711,-0.0692,-0.0648,-0.0643,-0.0673,-0.0674,-0.0608,-0.0601,-0.0594,-0.0546,-0.057,-0.0567,-0.0565,-0.045,-0.0449,-0.0448,0,0,0,0,0,0,-0.0817,-0.0808,-0.0721,-0.0758,-0.0747,-0.0716,-0.0695,-0.069,-0.0675,-0.0641,-0.0636,-0.0663,-0.0608,-0.0599,-0.0559,-0.0543,-0.0565,-0.0562,-0.0452,-0.045,-0.0449,-0.0449,0,0,0,0,0,0,-0.0821,-0.0809,-0.0794,-0.0758,-0.0745,-0.0687,-0.0694,-0.0688,-0.0669,-0.0668,-0.063,-0.0625,-0.0608,-0.0564,-0.0555,-0.0539,-0.0559,-0.0453,-0.0451,-0.0449,-0.045,-0.0448,-0.0446,0,0,0,0,0,-0.0825,-0.0797,-0.0794,-0.0783,-0.0726,-0.0687,-0.0679,-0.0661,-0.0668,-0.0652,-0.0631,-0.0626,-0.0547,-0.056,-0.055,-0.0532,-0.0454,-0.0451,-0.0449,-0.0451,-0.0448,-0.0446,0,0,0,0,0,0,-0.0831,-0.0792,-0.0788,-0.0747,-0.072,-0.0684,-0.0665,-0.0659,-0.0629,-0.063,-0.0609,-0.06,-0.0561,-0.0543,-0.0559,-0.0492,-0.05,-0.0496,-0.0506,-0.0502,-0.05,-0.0505,-0.0556,0,0,0,0,0,-0.0828,-0.08,-0.0766,-0.0734,-0.0721,-0.0695,-0.0677,-0.0666,-0.0637,-0.0626,-0.0601,-0.0573,-0.0541,-0.0521,-0.049,-0.0448,-0.0439,-0.0431,-0.0428,-0.0427,-0.0423,-0.0398,-0.0394,-0.0441,-0.0441,-0.0441,0,0,-0.0821,-0.0796,-0.0779,-0.0734,-0.0712,-0.0683,-0.0686,-0.0654,-0.0632,-0.062,-0.0581,-0.0562,-0.0529,-0.0487,-0.0468,-0.0471,-0.0408,-0.0424,-0.0423,-0.042,-0.0395,-0.0391,-0.0387,-0.0439,-0.044,-0.044,0,0,-0.0792,-0.0771,-0.0741,-0.0719,-0.0686,-0.0669,-0.0662,-0.0627,-0.0614,-0.0575,-0.0565,-0.0538,-0.0485,-0.0461,-0.0442,-0.0405,-0.0399,-0.0396,-0.0383,-0.036,-0.0356,-0.0353,-0.0338,-0.0334,-0.0392,-0.0392,-0.0392,0,-0.0787,-0.0743,-0.0726,-0.0695,-0.0675,-0.0665,-0.0633,-0.0613,-0.0571,-0.0557,-0.0562,-0.0495,-0.0471,-0.0424,-0.0415,-0.04,-0.0391,-0.04,-0.0358,-0.0354,-0.0351,-0.0337,-0.0332,-0.0392,-0.0392,-0.0392,-0.0392,0,-0.0737,-0.0707,-0.0687,-0.0647,-0.0625,-0.0595,-0.0572,-0.0552,-0.0543,-0.0525,-0.0485,-0.0457,-0.042,-0.0408,-0.0399,-0.0359,-0.0362,-0.0363,-0.037,-0.0346,-0.0333,-0.0328,-0.0392,-0.0392,-0.0392,-0.0392,0,0,-0.071,-0.0662,-0.0655,-0.0637,-0.06,-0.0575,-0.0544,-0.0509,-0.0491,-0.0463,-0.0435,-0.0391,-0.0391,-0.037,-0.0358,-0.0337,-0.0308,-0.034,-0.0339,-0.0334,-0.0262,-0.0261,-0.0255,-0.0305,-0.0303,-0.0303,-0.0264,0,-0.0676,-0.062,-0.0604,-0.0556,-0.0527,-0.0517,-0.049,-0.0463,-0.0446,-0.0419,-0.04,-0.0368,-0.0372,-0.0358,-0.0338,-0.0316,-0.0293,-0.0319,-0.0277,-0.0276,-0.0285,-0.0248,-0.0247,-0.0212,-0.0259,-0.0258,-0.0257,0,-0.0629,-0.0601,-0.055,-0.0517,-0.0504,-0.0479,-0.0446,-0.042,-0.039,-0.0379,-0.0355,-0.0345,-0.0311,-0.0321,-0.0273,-0.0291,-0.0273,-0.026,-0.0258,-0.0252,-0.0264,-0.024,-0.02,-0.0195,-0.0249,-0.025,-0.025,0,-0.0613,-0.0562,-0.0525,-0.051,-0.047,-0.0453,-0.0435,-0.0406,-0.0386,-0.0357,-0.0343,-0.031,-0.0291,-0.0265,-0.0246,-0.0256,-0.0199,-0.0208,-0.0188,-0.0189,-0.0176,-0.0177,-0.0131,-0.0166,-0.0167,-0.0167,-0.0167,0,-0.0576,-0.0545,-0.0517,-0.0494,-0.0459,-0.0441,-0.0407,-0.0389,-0.0363,-0.0336,-0.0325,-0.03,-0.0276,-0.0248,-0.0232,-0.0194,-0.0186,-0.0176,-0.0172,-0.0176,-0.0177,-0.0163,-0.0165,-0.0165,-0.0166,-0.0166,-0.0166,0,-0.0552,-0.0532,-0.0491,-0.0457,-0.0447,-0.0423,-0.0393,-0.037,-0.0353,-0.0319,-0.031,-0.0283,-0.0248,-0.0227,-0.0183,-0.0173,-0.0131,-0.0128,-0.0141,-0.0139,-0.012,-0.0122,-0.0063,-0.0054,-0.0096,-0.0096,-0.0095,0,-0.0529,-0.0505,-0.0469,-0.045,-0.0432,-0.0403,-0.0382,-0.0363,-0.0342,-0.0306,-0.0287,-0.0253,-0.0224,-0.0169,-0.0145,-0.0111,-0.0107,-0.0089,-0.0102,-0.0107,-0.0105,-0.0107,-0.0104,-0.0086,-0.0086,-0.0086,-0.0085,0,-0.0491,-0.0482,-0.0453,-0.0421,-0.0397,-0.037,-0.0343,-0.0329,-0.0305,-0.0282,-0.0247,-0.0225,-0.018,-0.0145,-0.011,-0.0091,-0.0083,-0.0082,-0.0075,-0.0078,-0.0086,-0.0081,-0.0134,-0.0083,-0.0083,-0.0083,-0.0083,-0.0083,-0.0465,-0.0444,-0.0414,-0.0382,-0.0361,-0.0336,-0.0313,-0.0293,-0.0264,-0.0226,-0.0217,-0.018,-0.015,-0.0102,-0.0082,-0.0053,-0.0055,-0.0046,-0.0043,-0.0041,-0.004,-0.0092,-0.0046,-0.0046,-0.0046,-0.0046,-0.0046,0,-0.0425,-0.0406,-0.0377,-0.0341,-0.0315,-0.0312,-0.0283,-0.0261,-0.0229,-0.0202,-0.0174,-0.0134,-0.01,-0.0074,-0.0039,-0.002,-0.0016,-0.0011,-0.0012,-0.0007,-0.004,-0.0049,-0.0015,-0.0015,-0.0015,-0.0015,-0.0015,-0.0015,-0.0402,-0.0364,-0.0352,-0.0303,-0.0284,-0.0249,-0.0232,-0.0209,-0.0187,-0.0143,-0.0115,-0.0098,-0.0071,-0.0034,-0.0003,0.0004,0.0017,0.0021,0.0029,-0.0002,-0.0005,-0.0008,-0.0016,0.0023,0.0023,0.0059,0.006,0.006]},{"header":{"parameterUnit":"m.s-1","parameterCategory":1,"la1":30.2991,"la2":30.254,"lo1":-89.0895,"lo2":-89.0444,"dx":0.0017,"dy":0.0017,"nx":28,"ny":28,"refTime":"2022-12-05T15:00:00:Z","depth":0,"parameterNumber":3,"parameterNumberName":"V-component_of_WINDS"},"data":[0,0,0,0,0,0,0,0,0,0,0,0,0,0,0,0,0,0,0,0,0,0,0,0,0,0,0,0,0,0,0,0,0,0,0,0,0,0,0,0,0,0,0,0,0,0,0,0,0,0,0,0,0,0,0,0,0,0,2.5826,2.5827,0,2.587,2.5871,2.5871,2.5862,2.5861,2.586,2.5859,2.5902,2.5904,2.5906,0,0,0,0,0,0,0,0,0,0,0,0,0,2.5732,2.5734,2.5826,2.5827,2.5827,2.587,2.5871,2.5871,2.5862,2.5861,2.586,2.5859,2.5901,2.5904,2.5906,0,0,0,0,0,0,0,0,0,0,0,0,0,2.5774,2.5735,2.5826,2.5828,2.5828,2.587,2.5871,2.5871,2.5862,2.5861,2.5859,2.5858,2.5901,2.5904,2.5906,2.5948,0,0,2.5915,2.5916,0,0,0,0,0,0,0,0,2.5772,2.5778,2.5827,2.5828,2.5828,2.5859,2.5853,2.5897,2.5862,2.5849,2.5859,2.5858,2.5889,2.5892,2.5903,2.595,2.5952,2.5915,2.5917,2.5918,2.5919,0,0,0,0,0,0,0,2.5769,2.5776,2.5843,2.5828,2.5829,2.5826,2.583,2.5861,2.5875,2.585,2.585,2.5855,2.5889,2.5901,2.5904,2.5953,2.5915,2.5918,2.592,2.5921,2.6037,2.6038,0,0,0,0,0,0,2.5766,2.5773,2.5842,2.5845,2.5797,2.5828,2.5834,2.585,2.5875,2.5877,2.5856,2.5854,2.5896,2.5901,2.5906,2.5957,2.5918,2.5921,2.5923,2.6035,2.6037,2.6039,0,0,0,0,0,0,2.5764,2.5772,2.584,2.5809,2.5818,2.5831,2.585,2.5852,2.5864,2.5879,2.5881,2.5866,2.5895,2.5902,2.5938,2.5959,2.5922,2.5925,2.6034,2.6036,2.6038,2.606,0,0,0,0,0,0,2.5761,2.5771,2.5788,2.581,2.5819,2.5873,2.5852,2.5854,2.5869,2.5867,2.5889,2.5891,2.5895,2.5934,2.5941,2.5962,2.5927,2.6032,2.6035,2.6037,2.6058,2.6063,2.6067,0,0,0,0,0,2.5758,2.5792,2.5789,2.5797,2.584,2.5874,2.5879,2.5884,2.5871,2.5887,2.5897,2.5891,2.5955,2.5938,2.5945,2.5968,2.6031,2.6034,2.6037,2.6056,2.6062,2.6067,0,0,0,0,0,0,2.5772,2.5795,2.5792,2.5834,2.5852,2.5872,2.5893,2.589,2.5912,2.5909,2.5913,2.5918,2.5955,2.5965,2.5945,2.601,2.5991,2.5996,2.6002,2.6008,2.6013,2.601,2.5929,0,0,0,0,0,2.578,2.5806,2.5824,2.586,2.5869,2.588,2.5894,2.5896,2.5915,2.5922,2.5935,2.5953,2.5977,2.5993,2.6016,2.6058,2.6063,2.6077,2.6082,2.6086,2.609,2.6114,2.6121,2.6049,2.6049,2.6049,0,0,2.5797,2.5813,2.5829,2.5863,2.5877,2.5904,2.5886,2.5915,2.5934,2.5926,2.5962,2.5972,2.5992,2.6032,2.605,2.6041,2.6111,2.609,2.6093,2.6095,2.6118,2.6125,2.6131,2.6051,2.6051,2.605,0,0,2.5842,2.5856,2.5888,2.5902,2.5924,2.5931,2.5939,2.5959,2.5966,2.6002,2.5996,2.6019,2.606,2.6075,2.6088,2.6138,2.6133,2.6145,2.617,2.6194,2.6199,2.6204,2.6223,2.623,2.6149,2.615,2.615,0,2.586,2.59,2.5904,2.5934,2.5949,2.5943,2.5975,2.5989,2.6017,2.6027,2.6017,2.6069,2.6082,2.6126,2.6138,2.6148,2.6157,2.6144,2.6198,2.6203,2.6208,2.6226,2.6233,2.6151,2.6151,2.6151,2.6151,0,2.5922,2.595,2.5973,2.6001,2.6019,2.6049,2.6057,2.6074,2.6074,2.6081,2.6118,2.6133,2.616,2.617,2.6169,2.6213,2.6207,2.6197,2.6179,2.6216,2.6233,2.624,2.6153,2.6153,2.6152,2.6152,0,0,2.5978,2.6008,2.6016,2.603,2.6053,2.6075,2.6104,2.6131,2.6146,2.6165,2.619,2.6225,2.6216,2.6231,2.6232,2.6252,2.6292,2.624,2.6241,2.625,2.6342,2.6351,2.6358,2.6288,2.6289,2.629,2.6341,0,2.6026,2.608,2.6084,2.6132,2.6158,2.6153,2.6179,2.6196,2.6203,2.6226,2.6234,2.6259,2.6245,2.6254,2.6274,2.6283,2.6311,2.6279,2.6312,2.6313,2.6309,2.6367,2.6376,2.6423,2.6347,2.6348,2.6349,0,2.609,2.6112,2.6163,2.6183,2.6194,2.6218,2.6243,2.6264,2.6283,2.6287,2.6303,2.6302,2.6332,2.6311,2.6353,2.6331,2.6345,2.6351,2.6353,2.6357,2.6335,2.6374,2.6438,2.6446,2.6359,2.6359,2.6358,0,2.6127,2.6169,2.6206,2.6217,2.6241,2.6258,2.6268,2.6286,2.6302,2.6323,2.6333,2.6357,2.637,2.6389,2.6393,2.6378,2.6435,2.6415,2.644,2.644,2.6453,2.6453,2.6521,2.6459,2.6459,2.6459,2.6459,0,2.6181,2.6213,2.6223,2.6246,2.6281,2.6284,2.6319,2.6328,2.6344,2.6368,2.6364,2.6386,2.639,2.6413,2.6417,2.6451,2.6457,2.6461,2.6462,2.6462,2.6462,2.6472,2.647,2.6461,2.6461,2.646,2.646,0,2.623,2.6238,2.6277,2.6297,2.6302,2.6328,2.6344,2.6366,2.6372,2.6403,2.641,2.642,2.6447,2.6453,2.6485,2.6487,2.6529,2.6525,2.6523,2.6523,2.6548,2.6546,2.6627,2.6638,2.6568,2.6568,2.6569,0,2.6265,2.6289,2.6312,2.6328,2.6339,2.6365,2.6381,2.6385,2.6402,2.6425,2.6444,2.647,2.6492,2.6535,2.6545,2.6569,2.6568,2.6594,2.6571,2.6571,2.657,2.6569,2.6572,2.6599,2.66,2.6601,2.6601,0,2.6326,2.6329,2.6353,2.6378,2.6398,2.6418,2.6436,2.645,2.6456,2.6475,2.6503,2.652,2.6552,2.6579,2.6603,2.6613,2.6609,2.6608,2.6615,2.6617,2.6615,2.6618,2.6536,2.6606,2.6606,2.6606,2.6605,2.6605,2.637,2.6392,2.6411,2.6438,2.6452,2.647,2.6492,2.6501,2.6525,2.6552,2.6552,2.6583,2.6601,2.6633,2.6645,2.6668,2.666,2.667,2.6673,2.6676,2.6679,2.661,2.6672,2.6672,2.6672,2.6672,2.6672,0,2.6432,2.6444,2.6469,2.6496,2.6517,2.651,2.6531,2.6549,2.6576,2.6593,2.6615,2.6647,2.6672,2.6684,2.6709,2.6726,2.6724,2.6733,2.6732,2.6735,2.6684,2.6676,2.6733,2.6733,2.6733,2.6733,2.6733,2.6733,2.6467,2.6504,2.6509,2.6553,2.6564,2.6595,2.6608,2.6624,2.6638,2.6674,2.6695,2.6703,2.6718,2.6744,2.6767,2.677,2.678,2.679,2.6792,2.6744,2.6738,2.6732,2.6725,2.6791,2.6792,2.684,2.6841,2.6841]}]]